[[{"header":{"parameterUnit":"m.s-1","parameterCategory":1,"la1":30.2991,"la2":30.254,"lo1":-89.0895,"lo2":-89.0444,"dy":0.0017,"dx":0.0017,"nx":28,"ny":28,"refTime":"2025-12-27T03:00:00:Z","depth":0,"parameterNumber":2,"parameterNumberName":"U-component_of_WINDS"},"data":[0,0,0,0,0,0,0,0,0,0,0,0,0,0,0,0,0,0,0,0,0,0,0,0,0,0,0,0,0,0,0,0,0,0,0,0,0,0,0,0,0,0,0,0,0,0,0,0,0,0,0,0,0,0,0,0,0,0,2.0266,2.0266,0,2.0332,2.0333,2.0334,2.0309,2.0307,2.0305,2.0304,2.0378,2.0382,2.0385,0,0,0,0,0,0,0,0,0,0,0,0,0,2.0123,2.0126,2.0266,2.0266,2.0267,2.0332,2.0333,2.0334,2.0309,2.0307,2.0305,2.0303,2.0377,2.0381,2.0386,0,0,0,0,0,0,0,0,0,0,0,0,0,2.0187,2.0127,2.0266,2.0262,2.0263,2.0332,2.0333,2.0334,2.0309,2.0307,2.0305,2.0302,2.0376,2.0381,2.0386,2.0464,0,0,2.0402,2.0404,0,0,0,0,0,0,0,0,2.0183,2.0192,2.0262,2.0263,2.0263,2.031,2.031,2.0378,2.031,2.0292,2.0304,2.0301,2.0358,2.0364,2.0382,2.0468,2.0471,2.0402,2.0405,2.0408,2.0409,0,0,0,0,0,0,0,2.0179,2.0189,2.0292,2.0263,2.0264,2.026,2.0266,2.0323,2.0337,2.0293,2.0291,2.0299,2.0358,2.0377,2.0384,2.0472,2.0402,2.0407,2.041,2.0412,2.0628,2.0631,0,0,0,0,0,0,2.0173,2.0186,2.029,2.0294,2.0217,2.0264,2.0272,2.0297,2.0337,2.034,2.0301,2.0298,2.037,2.0378,2.0386,2.0482,2.0408,2.0412,2.0415,2.0626,2.0629,2.0632,0,0,0,0,0,0,2.0171,2.0183,2.0287,2.024,2.0253,2.0269,2.0298,2.03,2.0319,2.0343,2.0346,2.0318,2.0368,2.0379,2.0445,2.0484,2.0415,2.0419,2.0623,2.0627,2.063,2.0673,0,0,0,0,0,0,2.0166,2.0182,2.021,2.024,2.0255,2.0343,2.0301,2.0303,2.0327,2.0324,2.0359,2.0363,2.0367,2.0438,2.045,2.049,2.0423,2.0619,2.0624,2.0629,2.0668,2.0678,2.0687,0,0,0,0,0,2.0161,2.022,2.0212,2.0224,2.029,2.0345,2.0354,2.0356,2.033,2.036,2.0376,2.0362,2.0478,2.0445,2.0459,2.0501,2.0617,2.0623,2.0629,2.0664,2.0676,2.0686,0,0,0,0,0,0,2.0196,2.0224,2.0215,2.0285,2.0313,2.0341,2.0378,2.0368,2.0406,2.0401,2.0403,2.0412,2.048,2.0497,2.046,2.058,2.0544,2.0553,2.0566,2.0578,2.0586,2.0581,2.0428,0,0,0,0,0,2.0211,2.0252,2.0275,2.0335,2.0349,2.0361,2.0386,2.0385,2.0414,2.0427,2.0447,2.0478,2.0522,2.0551,2.0592,2.0671,2.068,2.0707,2.0716,2.0723,2.0731,2.0776,2.0789,2.0652,2.0652,2.0651,0,0,2.0244,2.0265,2.029,2.0342,2.0364,2.0408,2.0372,2.0419,2.0453,2.0435,2.0498,2.0514,2.055,2.0623,2.0656,2.0639,2.0771,2.0731,2.0736,2.0741,2.0784,2.0797,2.0809,2.0656,2.0655,2.0654,0,0,2.0327,2.0345,2.0398,2.042,2.0453,2.0461,2.0474,2.0504,2.0513,2.0577,2.0565,2.0606,2.068,2.0707,2.073,2.0824,2.0814,2.0838,2.0886,2.093,2.094,2.095,2.0985,2.0998,2.0846,2.0846,2.0846,0,2.0364,2.0428,2.0427,2.0476,2.05,2.0484,2.0539,2.0561,2.0607,2.0625,2.0604,2.0699,2.0722,2.0802,2.0825,2.0844,2.086,2.0834,2.0938,2.0948,2.0957,2.0991,2.1004,2.0849,2.0848,2.0848,2.0848,0,2.0473,2.0517,2.0556,2.0599,2.0628,2.0679,2.0689,2.0718,2.0716,2.0727,2.0793,2.082,2.0867,2.0886,2.0884,2.0967,2.0956,2.0937,2.0901,2.0973,2.1005,2.1018,2.0853,2.0852,2.0851,2.085,0,0,2.0578,2.062,2.0634,2.0654,2.069,2.0726,2.0778,2.0823,2.0849,2.0882,2.0927,2.0991,2.0975,2.1001,2.1002,2.1041,2.1116,2.1018,2.1019,2.1036,2.1212,2.1226,2.1241,2.111,2.1112,2.1114,2.1209,0,2.0664,2.0753,2.0755,2.0838,2.088,2.0867,2.0913,2.0941,2.0954,2.0994,2.1008,2.1054,2.1028,2.1044,2.1082,2.1099,2.1152,2.1092,2.1154,2.1156,2.1146,2.1257,2.1272,2.136,2.1221,2.1224,2.1225,0,2.0776,2.081,2.0897,2.0928,2.0946,2.0987,2.1029,2.1067,2.11,2.1107,2.1137,2.1133,2.1189,2.1151,2.123,2.119,2.1216,2.1229,2.1232,2.1238,2.1195,2.1268,2.1388,2.1402,2.1244,2.1243,2.1241,0,2.0845,2.0914,2.0975,2.0993,2.103,2.106,2.1077,2.1107,2.1135,2.1173,2.1191,2.1236,2.126,2.1296,2.1306,2.1277,2.1386,2.1348,2.1395,2.1395,2.1418,2.1417,2.1546,2.1434,2.1434,2.1433,2.1433,0,2.0941,2.0995,2.1007,2.1045,2.1106,2.1109,2.117,2.1186,2.1213,2.1256,2.1248,2.1288,2.1298,2.1341,2.1349,2.1415,2.1426,2.1435,2.1436,2.1436,2.1435,2.1453,2.1448,2.1437,2.1436,2.1435,2.1435,0,2.1029,2.1039,2.1105,2.1135,2.1144,2.1188,2.1215,2.1253,2.1264,2.1319,2.1332,2.1351,2.1402,2.1415,2.1476,2.1482,2.1559,2.1555,2.1547,2.1548,2.1594,2.159,2.174,2.1761,2.1634,2.1635,2.1636,0,2.109,2.1131,2.1166,2.1193,2.1211,2.1255,2.1283,2.1288,2.1318,2.136,2.1393,2.1443,2.1482,2.1565,2.1586,2.1634,2.1631,2.168,2.1638,2.1637,2.1633,2.1631,2.1636,2.1689,2.169,2.1691,2.1692,0,2.1197,2.12,2.1239,2.1282,2.1315,2.1348,2.138,2.1404,2.1414,2.1449,2.1499,2.153,2.1593,2.1643,2.1691,2.1712,2.1705,2.1705,2.1719,2.1719,2.1713,2.1718,2.157,2.1702,2.1701,2.17,2.1699,2.1699,2.1274,2.1311,2.1341,2.1386,2.1411,2.1441,2.1479,2.1495,2.1537,2.1587,2.1588,2.1644,2.1679,2.1743,2.1767,2.1812,2.1798,2.1817,2.1822,2.1827,2.1832,2.1705,2.1821,2.1821,2.1821,2.1821,2.182,0,2.1382,2.1401,2.1442,2.1487,2.1523,2.1512,2.1547,2.1579,2.1628,2.166,2.1699,2.1759,2.1809,2.1834,2.1884,2.1916,2.1914,2.1929,2.1927,2.1932,2.1841,2.1825,2.193,2.1929,2.1929,2.1929,2.1929,2.1929,2.1443,2.1504,2.1512,2.1587,2.1606,2.1659,2.1681,2.1711,2.1736,2.1803,2.1843,2.1859,2.189,2.1941,2.1987,2.1994,2.2013,2.203,2.2035,2.195,2.1938,2.1928,2.1913,2.2034,2.2034,2.2122,2.2123,2.2124]},{"header":{"parameterUnit":"m.s-1","parameterCategory":1,"la1":30.2991,"la2":30.254,"lo1":-89.0895,"lo2":-89.0444,"dy":0.0017,"dx":0.0017,"nx":28,"ny":28,"refTime":"2025-12-27T03:00:00:Z","depth":0,"parameterNumber":3,"parameterNumberName":"V-component_of_WINDS"},"data":[0,0,0,0,0,0,0,0,0,0,0,0,0,0,0,0,0,0,0,0,0,0,0,0,0,0,0,0,0,0,0,0,0,0,0,0,0,0,0,0,0,0,0,0,0,0,0,0,0,0,0,0,0,0,0,0,0,0,1.7615,1.7615,0,1.7606,1.7606,1.7606,1.7573,1.7572,1.7571,1.757,1.7561,1.7561,1.7562,0,0,0,0,0,0,0,0,0,0,0,0,0,1.7605,1.7606,1.7615,1.7615,1.7615,1.7606,1.7606,1.7606,1.7573,1.7572,1.7571,1.757,1.7561,1.7561,1.7562,0,0,0,0,0,0,0,0,0,0,0,0,0,1.7604,1.7606,1.7615,1.7598,1.7596,1.7606,1.7606,1.7606,1.7573,1.7572,1.7571,1.757,1.7561,1.7561,1.7562,1.7588,0,0,1.7564,1.7564,0,0,0,0,0,0,0,0,1.7604,1.7605,1.76,1.7599,1.7597,1.7589,1.7599,1.76,1.7573,1.7582,1.757,1.7569,1.7571,1.7571,1.7572,1.7588,1.7588,1.7564,1.7564,1.7565,1.7565,0,0,0,0,0,0,0,1.7604,1.7605,1.7612,1.76,1.7598,1.759,1.7589,1.7599,1.7583,1.7581,1.7578,1.7578,1.757,1.7571,1.7571,1.7587,1.7564,1.7565,1.7565,1.7565,1.7626,1.7627,0,0,0,0,0,0,1.7607,1.7605,1.7612,1.7611,1.7598,1.7591,1.759,1.7593,1.7583,1.758,1.7579,1.7576,1.7571,1.757,1.7571,1.7602,1.7565,1.7565,1.7566,1.7625,1.7626,1.7628,0,0,0,0,0,0,1.7607,1.7608,1.7612,1.7608,1.7607,1.7593,1.7596,1.7593,1.7594,1.7581,1.7578,1.7583,1.757,1.757,1.7585,1.7601,1.7566,1.7566,1.7624,1.7625,1.7627,1.7664,0,0,0,0,0,0,1.7607,1.7608,1.7618,1.7608,1.7608,1.7626,1.7597,1.7594,1.7595,1.7592,1.7584,1.7582,1.7569,1.7584,1.7585,1.7601,1.7567,1.7622,1.7624,1.7627,1.7662,1.7667,1.7672,0,0,0,0,0,1.7606,1.7628,1.7618,1.7619,1.762,1.7627,1.7627,1.7612,1.7597,1.7607,1.7599,1.7582,1.7599,1.7585,1.7587,1.7604,1.7621,1.7624,1.7626,1.7659,1.7666,1.7672,0,0,0,0,0,0,1.764,1.7627,1.7616,1.7635,1.7633,1.7622,1.7634,1.762,1.7621,1.7618,1.7599,1.7598,1.7615,1.7611,1.7596,1.7629,1.7607,1.761,1.7632,1.7638,1.7643,1.7644,1.7567,0,0,0,0,0,1.765,1.7657,1.7645,1.7663,1.7663,1.7648,1.7651,1.764,1.7636,1.7635,1.7628,1.7625,1.763,1.7634,1.7637,1.7661,1.7659,1.7673,1.7678,1.7682,1.7686,1.7698,1.7705,1.7637,1.7637,1.7637,0,0,1.767,1.7664,1.7669,1.767,1.7667,1.7675,1.7648,1.7657,1.7663,1.7636,1.765,1.7645,1.7641,1.766,1.7668,1.7657,1.7704,1.7686,1.769,1.769,1.7702,1.7708,1.7714,1.7639,1.7638,1.7638,0,0,1.7711,1.7707,1.7722,1.7719,1.7715,1.7706,1.7709,1.7701,1.7696,1.771,1.769,1.7697,1.7706,1.7704,1.7704,1.7746,1.7731,1.7747,1.7775,1.7788,1.7793,1.7798,1.7813,1.7819,1.775,1.775,1.775,0,1.7737,1.7748,1.7731,1.7743,1.7744,1.772,1.7736,1.7734,1.7731,1.7733,1.772,1.7731,1.7727,1.7746,1.7756,1.7757,1.7761,1.7748,1.7794,1.7798,1.7802,1.7817,1.7823,1.7753,1.7752,1.7752,1.7752,0,1.778,1.7788,1.7801,1.78,1.7802,1.7815,1.7801,1.7806,1.7795,1.7787,1.7801,1.7795,1.7798,1.7801,1.779,1.7819,1.7812,1.7797,1.7774,1.7811,1.7825,1.783,1.7756,1.7755,1.7754,1.7754,0,0,1.7842,1.7831,1.7836,1.7836,1.783,1.7836,1.7848,1.7851,1.7856,1.7855,1.7865,1.7874,1.786,1.786,1.7848,1.7859,1.7894,1.7843,1.7842,1.7853,1.7927,1.7939,1.7946,1.7884,1.7885,1.7886,1.7927,0,1.7881,1.7902,1.7888,1.7912,1.792,1.7898,1.7909,1.7907,1.79,1.7906,1.7898,1.7905,1.7885,1.7885,1.7895,1.7888,1.7909,1.7884,1.7894,1.7894,1.7896,1.7953,1.7965,1.8005,1.7932,1.7933,1.7934,0,1.793,1.7932,1.7956,1.795,1.7953,1.7963,1.7965,1.797,1.7968,1.7962,1.7963,1.7949,1.7961,1.7939,1.7956,1.7939,1.7943,1.794,1.7941,1.7942,1.7917,1.7956,1.8017,1.8024,1.7942,1.7941,1.7941,0,1.7974,1.7982,1.7998,1.7998,1.7991,1.7998,1.7996,1.7992,1.7995,1.7996,1.7998,1.8001,1.8003,1.8006,1.7993,1.7978,1.8012,1.7988,1.8008,1.8009,1.8017,1.8017,1.8081,1.8018,1.8018,1.8018,1.8017,0,1.802,1.8036,1.8018,1.8028,1.8045,1.8029,1.8047,1.8042,1.8039,1.8048,1.8029,1.8037,1.802,1.8027,1.8017,1.8033,1.8034,1.803,1.8027,1.8032,1.8033,1.8034,1.8031,1.8019,1.8019,1.8018,1.8018,0,1.8072,1.806,1.8076,1.8068,1.8066,1.808,1.8073,1.8082,1.8074,1.8085,1.8087,1.8075,1.8082,1.807,1.8075,1.8069,1.8092,1.8084,1.8093,1.8091,1.8112,1.811,1.818,1.8188,1.8119,1.812,1.812,0,1.8102,1.8114,1.8107,1.8112,1.8111,1.8118,1.8121,1.8106,1.811,1.8109,1.8118,1.8124,1.8128,1.8141,1.8132,1.8137,1.813,1.8154,1.813,1.8135,1.8131,1.8131,1.8133,1.8159,1.816,1.816,1.8161,0,1.8158,1.8152,1.8157,1.8161,1.8165,1.8167,1.8168,1.8173,1.8157,1.8162,1.817,1.8173,1.8179,1.8186,1.8188,1.8186,1.8171,1.8168,1.8173,1.8179,1.8184,1.8182,1.8107,1.8167,1.8166,1.8166,1.8166,1.8165,1.82,1.821,1.8207,1.8214,1.8213,1.8215,1.8223,1.8217,1.8223,1.8227,1.8218,1.8228,1.8226,1.8228,1.8227,1.8234,1.8224,1.8231,1.8233,1.8235,1.8239,1.8182,1.8235,1.8235,1.8234,1.8234,1.8234,0,1.8255,1.8253,1.8259,1.8261,1.8267,1.8253,1.8253,1.8259,1.8268,1.8267,1.8272,1.8281,1.8288,1.828,1.8285,1.8293,1.8287,1.8295,1.8295,1.8294,1.8247,1.8243,1.83,1.83,1.83,1.83,1.83,1.83,1.8285,1.8302,1.8295,1.8312,1.8309,1.8319,1.8321,1.8322,1.8322,1.8333,1.8338,1.8334,1.833,1.8335,1.8341,1.8338,1.8341,1.8352,1.8348,1.8304,1.8298,1.8291,1.8287,1.8353,1.8353,1.8394,1.8395,1.8395]}]]